Regional Weather Roundup
Issued by NWS

Home | Current Version | Previous Version | Text Only | Print | Product List | Glossary On
Versions: 1 2 3 4 5 6 7 8 9 10 11 12 13 14 15 16 17 18 19 20 21 22 23 24 25 26 27 28 29 30 31 32 33 34 35 36 37 38 39 40 41 42 43 44 45 46 47 48 49 50
000
ASUS46 KSEW 262110
RWRWA

WASHINGTON REGIONAL WEATHER ROUNDUP
NATIONAL WEATHER SERVICE SEATTLE WA
200 PM PDT SUN APR 26 2015

NOTE:"FAIR" INDICATES FEW OR NO CLOUDS BELOW 12,000 FEET WITH NO
SIGNIFICANT WEATHER AND/OR OBSTRUCTIONS TO VISIBILITY.

WAZ505-507>509-262200-
SEATTLE, TACOMA, EVERETT, AND VICINITY

CITY           SKY/WX    TMP DP  RH WIND       PRES   REMARKS
EVERETT        PTSUNNY   55  38  52 S15       30.22F
BOEING FIELD   CLOUDY    58  40  51 S8        30.24R
RENTON         CLOUDY    57  37  47 S5        30.23S
SEATAC AIRPORT CLOUDY    57  40  52 SW6       30.24S
JBLM-MCCHORD   CLOUDY    59  42  54 SW10      30.22S
PUYALLUP       FAIR      59  41  51 CALM      30.22S
BREMERTON      CLOUDY    55  41  58 S12       30.25S
JBLM-FT LEWIS  CLOUDY    58  42  54 S13       30.22S
TACOMA NARROWS CLOUDY    56  41  57 W7        30.24S
$$

WAZ001-503-506-510-514-515-262200-
NORTH INTERIOR

CITY           SKY/WX    TMP DP  RH WIND       PRES   REMARKS
BELLINGHAM     PTSUNNY   57  40  52 S8        30.20S
FRIDAY HARBOR  CLOUDY    56  42  59 SE9       30.21S
EASTSOUND      PTSUNNY   57  41  54 S9        30.19R
PORT ANGELES   PTSUNNY   51  42  71 N6        30.19S
NAS WHIDBEY    CLOUDY    60  41  49 SE16G25   30.21S
ARLINGTON      PTSUNNY   57  39  51 SE13      30.23S
BURLINGTON     SUNNY     59  39  47 S12       30.21S
$$

WAZ020-022-039-040-504-511-512-262200-
SOUTHWEST INTERIOR

CITY           SKY/WX    TMP DP  RH WIND       PRES   REMARKS
SHELTON        CLOUDY    55  42  61 CALM      30.21S
OLYMPIA        CLOUDY    57  38  48 S13       30.24R
CHEHALIS       MOCLDY    59  41  51 S15       30.24R
KELSO          CLOUDY    57  43  58 S14       30.28S
VANCOUVER      CLOUDY    58  39  49 MISG      30.24S
SCAPPOOSE, OR  CLOUDY    56  44  64 S8        30.25R
PORTLAND, OR   CLOUDY    60  40  47 SW10      30.24F
$$

WAZ021-516-517-262200-
WASHINGTON COAST

CITY           SKY/WX    TMP DP  RH WIND       PRES   REMARKS
FORKS          CLOUDY    51  44  77 SE8G23    30.17S
HOQUIAM        CLOUDY    56  44  64 E10       30.20F
ASTORIA, OR    CLOUDY    55  43  63 SE7       30.20S
$$

WAZ019-023-024-040-518-519-262200-
CASCADE MOUNTAINS AND COLUMBIA GORGE

CITY           SKY/WX    TMP DP  RH WIND       PRES   REMARKS
TROUTDALE, OR  CLOUDY    60  40  47 NE6       30.23F
THE DALLES, OR PTSUNNY   66  31  27 CALM      30.19S
$$

WAZ026-027-041>044-520-521-262200-
EAST SLOPES

CITY           SKY/WX    TMP DP  RH WIND       PRES   REMARKS
OMAK           SUNNY     59  28  30 VRB5      30.16F
WENATCHEE      MOSUNNY   61  26  26 VRB5      30.17F
ELLENSBURG     PTSUNNY   61  22  22 VRB5      30.18S
YAKIMA         MOSUNNY   64  24  21 SE8       30.18F
$$

WAZ028-034-035-262200-
COLUMBIA BASIN

CITY           SKY/WX    TMP DP  RH WIND       PRES   REMARKS
EPHRATA        SUNNY     59  26  28 MISG      30.18F
MOSES LAKE     MOSUNNY   61  25  25 S8G17     30.20F
PASCO          SUNNY     63  27  25 CALM      30.21S
HERMISTON, OR  SUNNY     63  31  30 VRB5      30.20S
$$

WAZ036>038-262200-
NORTHEAST WASHINGTON

CITY           SKY/WX    TMP DP  RH WIND       PRES   REMARKS
SPOKANE GEIGER PTSUNNY   52  28  39 VRB5      30.18S
SPOKANE FELTS  PTSUNNY   57  32  38 VRB3      30.19S
FAIRCHILD AFB  MOSUNNY   55  31  39 VRB3      30.18S
COEURDALENE,ID MOSUNNY   55  30  38 W10       30.19S
DEER PARK      MOSUNNY   54  30  40 S10       30.19S
$$

WAZ029>033-262200-
SOUTHEAST WASHINGTON

CITY           SKY/WX    TMP DP  RH WIND       PRES   REMARKS
PULLMAN        SUNNY     54  27  35 W7        30.21S
LEWISTON, ID   SUNNY     59  26  28 SW5       30.19S
WALLA WALLA    MOSUNNY   60  27  28 CALM      30.20S
PENDLETON, OR  SUNNY     60  27  28 NW10      30.19S
$$


USA.gov is the U.S. government's official web portal to all federal, state and local government web resources and services.